Location: Sungai Kamana Besar
(2.6333°N, 113.4333°E)
Time: 04:53:42
(UTC+00:00)

Landsat 4 - Pass Details

Date: 29 May 2022
Orbit: 497 x 516 km, 98.2° (Epoch: 26 June)

Event Time Altitude Azimuth Distance (km) Brightness Sun altitude
Rises 20:42:05 0° 8° (N) 2,567 7.7 -22.4°
Reaches altitude 10° 20:44:09 10° 6° (N) 1,687 6.7 -21.9°
Enters shadow 20:47:36 69° 305° (NW) 532 3.5 -21.2°
